Regional Weather Roundup
Issued by NWS State College, PA

Home | Current Version | Previous Version | Text Only | Print | Product List | Glossary On
Versions: 1 2 3 4 5 6 7 8 9 10 11 12 13 14 15 16 17 18 19 20 21 22 23 24 25 26 27 28 29 30 31 32 33 34 35 36 37 38 39 40 41 42 43 44 45 46 47 48 49 50
894
ASUS41 KCTP 251103
RWRCTP

REGIONAL WEATHER ROUNDUP
NATIONAL WEATHER SERVICE STATE COLLEGE PA
700 AM EDT MON JUL 25 2016

Note: "fair" indicates few or no clouds below 12,000 feet with no
significant weather and/or obstructions to visibility.

* = STATION THAT DOES NOT REPORT PRECIPITATION /E.G. RAIN...SNOW...ETC/
    THUNDER OR FOG.

PAZ002>004-007>009-013>016-020>023-029>032-251200-
WESTERN PENNSYLVANIA

CITY           SKY/WX    TMP DP  RH WIND       PRES   REMARKS
ERIE           CLOUDY    80  71  74 S12       29.89F
MEADVILLE      PTCLDY    71  68  90 S7        29.96F
FRANKLIN*      PTCLDY    72  66  83 SW8       30.00F
NEW CASTLE     FAIR      73  71  93 CALM      29.98F
BEAVER COUNTY  CLEAR     72  70  94 S6        29.99  FOG
BUTLER*        CLOUDY    72  70  94 S5        30.01F
PITTSBURGH INT CLOUDY    76  70  82 SW8       29.99F
PITTSBURGH     PTCLDY    73  69  87 S8        29.99F FOG
INDIANA*       MOCLDY    72  70  94 CALM      30.04F
LATROBE        PTCLDY    72  72 100 CALM      30.02S
WASHINGTON CO* CLOUDY    70  68  94 CALM      30.01F
$$

PAZ004>006-010>012-017>019-024>028-033>037-041-042-045-046-049>053-251200-
CENTRAL PENNSYLVANIA

CITY           SKY/WX    TMP DP  RH WIND       PRES   REMARKS
BRADFORD       CLOUDY    68  66  93 S3        30.01F
DUBOIS         CLOUDY    69  67  93 CALM      30.01F
CLEARFIELD     FOG       69  68  96 S3        30.02F VSB 1/4
JOHNSTOWN      CLOUDY    72  66  81 SW7       30.07S
ALTOONA        PTCLDY    71  68  90 CALM      30.03S
STATE COLLEGE  NOT AVBL
WILLIAMSPORT   SUNNY     74  69  85 CALM      29.96S
SELINSGROVE    PTSUNNY   71  71 100 CALM      29.98F FOG
FT INDIANTOWN  SUNNY     73  72  99 N2        29.98R
CAPITAL CITY   CLEAR     76  72  87 CALM      29.96S
HARRISBURG     MOCLDY    78  75  90 CALM      29.96S
YORK           CLOUDY    73  72  96 CALM      29.97F FOG
$$

PAZ038>040-043-044-047-048-054-055-060>062-067>071-251200-
EASTERN PENNSYLVANIA

CITY           SKY/WX    TMP DP  RH WIND       PRES   REMARKS
SCRANTON       MOSUNNY   74  69  85 SW6       29.98S
MOUNT POCONO   CLOUDY    68  66  93 W7        30.02S
ALLENTOWN      CLOUDY    77  69  76 SW5       29.96R
QUAKERTOWN*    MOSUNNY   73  72  94 CALM      29.98S
READING        CLOUDY    75  71  87 CALM      29.95F
LANCASTER      CLOUDY    73  72  96 CALM      29.97S FOG
COATESVILLE    CLOUDY    73  73 100 CALM      29.99S FOG
POTTSTOWN      CLOUDY    73  72  96 CALM      29.98S FOG
BLUE BELL      MOSUNNY   72  72 100 CALM      29.95S
DOYLESTOWN     CLOUDY    72  71  97 CALM      29.95F
WILLOW GROVE   NOT AVBL
NORTH PHILA    CLOUDY    75  73  93 SE8       29.97F
PHILADELPHIA   CLOUDY    75  72  90 SE7       29.96S
$$




USA.gov is the U.S. government's official web portal to all federal, state and local government web resources and services.